Montreal Mirabel, Ontario

12:01 PM EDT on March 30, 2017 (GMT -0400)
Montreal International (Mirabel)

Weather History for CYMX - December, 2012

Change the Weather History Date:

Tuesday, December 25, 2012

  Actual Average Record
Temperature  
Mean Temperature 10 °F -  
Max Temperature 17 °F 23 °F 44 °F (2015)
Min Temperature 3 °F 8 °F -9 °F (2004)
Degree Days  
Heating Degree Days 55    
Moisture  
Dew Point 5 °F    
Average Humidity 78    
Maximum Humidity 92    
Minimum Humidity 63    
Precipitation  
Precipitation 0.00 in - - ()
Sea Level Pressure  
Sea Level Pressure 30.24 in    
Wind  
Wind Speed 4 mph ()    
Max Wind Speed 9 mph    
Max Gust Speed -    
Averages and records for this station are not official NWS values.
T = Trace of Precipitation, MM = Missing Value Source: Averaged Metar Reports

Daily Weather History Graph

Daily Weather History Graph

Search for Another Location

Airport or City:

Trip Planner

Search our weather history database for the weather conditions in past years. The results will help you decide how hot, cold, wet, or windy it might be!

Date:

Astronomy

Dec. 25, 2012 Rise Set
Actual Time 7:35 AM EST 4:17 PM EST
Civil Twilight 7:01 AM EST 4:51 PM EST
Nautical Twilight 6:23 AM EST 5:29 PM EST
Astronomical Twilight 5:47 AM EST 6:05 PM EST
Moon 2:25 PM EST (12/25) 5:03 AM EST (12/25)
Length of Visible Light 9h 50m
Length of Day
8h 41m
Waxing Gibbous, 93% of the Moon is Illuminated
Dec 25
Waxing Gibbous
Dec 28
Full
Jan 4
Last Quarter
Jan 11
New
Jan 18
First Quarter

Hourly Weather History & Observations

Time (EST) Temp. Windchill Dew Point Humidity Pressure Visibility Wind Dir Wind Speed Gust Speed Precip Events Conditions
12:00 AM 6.8 °F -2.0 °F 3.2 °F 85% 30.10 in 25.0 mi NNE 4.6 mph - N/A   Overcast
1:00 AM 5.0 °F -4.1 °F 1.4 °F 85% 30.12 in 25.0 mi ENE 4.6 mph - N/A   Mostly Cloudy
2:00 AM 5.0 °F -2.1 °F 1.4 °F 85% 30.14 in 25.0 mi NE 3.5 mph - N/A   Mostly Cloudy
3:00 AM 6.8 °F -2.0 °F 3.2 °F 85% 30.11 in 25.0 mi NE 4.6 mph - N/A   Mostly Cloudy
4:00 AM 8.6 °F -1.3 °F 3.2 °F 79% 30.11 in 25.0 mi ENE 5.8 mph - N/A   Overcast
5:00 AM 8.6 °F 2.0 °F 3.2 °F 79% 30.12 in 25.0 mi NE 3.5 mph - N/A   Overcast
6:00 AM 8.6 °F 2.0 °F 3.2 °F 79% 30.15 in 25.0 mi NNE 3.5 mph - N/A   Overcast
7:00 AM 8.6 °F - 3.2 °F 79% 30.19 in 25.0 mi SSW 2.3 mph - N/A   Overcast
8:00 AM 8.6 °F 2.0 °F 5.0 °F 85% 30.21 in 45.0 mi South 3.5 mph - N/A   Overcast
9:00 AM 10.4 °F 4.0 °F 6.8 °F 85% 30.24 in 45.0 mi NNW 3.5 mph - N/A   Overcast
10:00 AM 14.0 °F - 5.0 °F 67% 30.25 in 45.0 mi Calm Calm - N/A   Overcast
11:00 AM 14.0 °F - 6.8 °F 73% 30.25 in 45.0 mi Variable 2.3 mph - N/A   Overcast
12:00 PM 14.0 °F 6.5 °F 6.8 °F 73% 30.24 in 45.0 mi WSW 4.6 mph - N/A   Mostly Cloudy
1:00 PM 17.6 °F 10.7 °F 6.8 °F 63% 30.25 in 40.0 mi WSW 4.6 mph - N/A   Partly Cloudy
2:00 PM 17.6 °F 7.3 °F 6.8 °F 63% 30.25 in 40.0 mi SW 8.1 mph - N/A   Partly Cloudy
3:00 PM 17.6 °F 6.4 °F 6.8 °F 63% 30.26 in 40.0 mi WSW 9.2 mph - N/A   Partly Cloudy
4:00 PM 15.8 °F 6.1 °F 6.8 °F 68% 30.27 in 40.0 mi WSW 6.9 mph - N/A   Partly Cloudy
5:00 PM 14.0 °F 6.5 °F 6.8 °F 73% 30.29 in 25.0 mi WSW 4.6 mph - N/A   Partly Cloudy
6:00 PM 14.0 °F 5.1 °F 8.6 °F 79% 30.31 in 25.0 mi WSW 5.8 mph - N/A   Partly Cloudy
7:00 PM 12.2 °F 4.3 °F 8.6 °F 85% 30.34 in 25.0 mi WSW 4.6 mph - N/A   Partly Cloudy
8:00 PM 12.2 °F 6.1 °F 8.6 °F 85% 30.36 in 25.0 mi WSW 3.5 mph - N/A   Partly Cloudy
9:00 PM 8.6 °F - 6.8 °F 92% 30.35 in 25.0 mi Calm Calm - N/A   Partly Cloudy
10:00 PM 3.2 °F - -0.4 °F 85% 30.37 in 25.0 mi Calm Calm - N/A   Clear
11:00 PM 3.2 °F - -0.4 °F 85% 30.39 in 25.0 mi Calm Calm - N/A   Clear